DW2959 Murcia ES current weather conditions

sailwx.info

Wind from 046

Air temperature 22.8° C
Dewpoint 18.7° C

Last reported at 2017-Jul-26 05:57 UTC.
Time now 2017-Jul-26 06:39 UTC

Location: N 38°00' W 001°02'.
View on Google Maps.

See reports from other nearby stations

  
Tides and Currents Weather Stations Pressure Air Temp Water Temp Dewpoint Dewpoint Depression Visibility Wind Speed Wind Dir Waves Ship Positions
date/time (UTC)wind fromknots sea level pressurealtimeterstation pressurevisibilityair tempwater tempwave heightnotes
2017-Jul-26 05:57 046 22.8
2017-Jul-26 05:42 046 22.2
2017-Jul-26 05:28 084 21.7
2017-Jul-26 05:17 084 21.7
2017-Jul-26 04:56 087 21.7
2017-Jul-26 04:41 087 21.7
2017-Jul-26 04:25 087 22.2
2017-Jul-26 04:11 087 21.7
2017-Jul-26 03:56 087 22.2
2017-Jul-26 03:40 086 22.2
2017-Jul-26 03:26 086 22.2
2017-Jul-26 03:11 086 22.2
2017-Jul-26 02:56 086 22.2
2017-Jul-26 02:40 086 22.8
2017-Jul-26 02:24 086 22.8
2017-Jul-26 02:10 086 23.3
2017-Jul-26 01:58 086 23.3
2017-Jul-26 01:39 086 23.3
2017-Jul-26 01:24 086 23.9
2017-Jul-26 01:09 086 23.9
2017-Jul-26 00:54 086 23.9
2017-Jul-26 00:39 086 23.9
2017-Jul-26 00:09 086 24.4
2017-Jul-25 23:53 086 24.4
2017-Jul-25 23:38 086 24.4
2017-Jul-25 23:23 086 24.4
2017-Jul-25 23:07 086 24.4
2017-Jul-25 22:52 086 24.4
2017-Jul-25 22:42 086 24.4
2017-Jul-25 22:23 086 25.0
2017-Jul-25 22:08 086 25.0
2017-Jul-25 21:53 086 25.0
2017-Jul-25 21:37 086 25.6
2017-Jul-25 21:22 086 25.6
2017-Jul-25 21:06 086 25.6
2017-Jul-25 20:51 088 25.6
2017-Jul-25 20:36 083 0 gusting 5 25.6
2017-Jul-25 20:21 082 0 gusting 5 26.1
2017-Jul-25 20:06 084 1 gusting 6 26.1
2017-Jul-25 19:51 074 2 gusting 7 26.1
2017-Jul-25 19:36 085 0 gusting 6 26.7
2017-Jul-25 19:21 088 3 gusting 7 26.7
2017-Jul-25 19:06 094 3 gusting 7 26.7
2017-Jul-25 18:50 093 3 gusting 9 27.2
2017-Jul-25 18:35 065 1 gusting 9 27.2
2017-Jul-25 18:21 096 3 gusting 9 27.8
2017-Jul-25 18:05 121 4 gusting 9 27.8
2017-Jul-25 17:50 100 4 gusting 11 28.3
2017-Jul-25 17:35 134 4 gusting 10 28.9
2017-Jul-25 17:19 105 4 gusting 10 29.4
2017-Jul-25 17:05 084 2 gusting 8 30.0
2017-Jul-25 16:50 099 2 gusting 8 30.6
2017-Jul-25 16:35 105 1 gusting 9 30.6
2017-Jul-25 16:19 156 2 gusting 7 30.6
2017-Jul-25 16:05 087 4 gusting 9 30.6
2017-Jul-25 15:50 129 3 gusting 6 31.1
2017-Jul-25 15:35 083 1 gusting 8 30.6
2017-Jul-25 15:21 108 5 gusting 11 30.6
2017-Jul-25 15:06 102 3 gusting 8 30.6
2017-Jul-25 14:49 126 2 gusting 8 30.6
2017-Jul-25 14:34 053 1 gusting 8 30.6
2017-Jul-25 14:17 096 2 gusting 6 30.6
2017-Jul-25 14:02 105 6 gusting 10 30.0
2017-Jul-25 13:47 072 3 gusting 7 30.6
2017-Jul-25 13:32 128 3 gusting 7 30.6
2017-Jul-25 13:03 106 1 gusting 7 31.1
2017-Jul-25 12:47 086 1 gusting 13 31.1
2017-Jul-25 12:32 086 6 gusting 12 30.6
2017-Jul-25 12:17 095 2 gusting 10 30.6
2017-Jul-25 12:00 099 2 gusting 10 30.6
2017-Jul-25 11:46 126 2 gusting 11 30.6
2017-Jul-25 11:31 107 2 gusting 12 30.0
2017-Jul-25 11:16 065 4 gusting 8 30.0
2017-Jul-25 11:00 090 3 gusting 11 30.0
2017-Jul-25 10:45 086 4 gusting 8 30.0
2017-Jul-25 10:31 094 4 gusting 10 29.4
2017-Jul-25 10:15 088 6 gusting 11 29.4
2017-Jul-25 10:00 111 2 gusting 10 28.3
2017-Jul-25 09:46 114 2 gusting 7 28.3
2017-Jul-25 09:29 075 27.8
2017-Jul-25 09:15 031 27.8
2017-Jul-25 09:00 309 27.8
2017-Jul-25 08:45 308 27.2
2017-Jul-25 08:29 316 26.7
2017-Jul-25 08:14 266 0 gusting 6 26.1
2017-Jul-25 08:00 244 0 gusting 4 25.6
2017-Jul-25 07:44 230 25.6
2017-Jul-25 07:29 237 0 gusting 6 25.0
2017-Jul-25 07:14 231 0 gusting 4 25.0
2017-Jul-25 06:59 213 24.4
2017-Jul-25 06:43 207 24.4
2017-Jul-25 06:30 205 24.4
2017-Jul-25 06:13 206 23.9
2017-Jul-25 05:58 205 23.3
2017-Jul-25 05:43 196 22.8
2017-Jul-25 05:28 194 22.8
2017-Jul-25 05:13 184 22.2
2017-Jul-25 04:57 091 22.2
2017-Jul-25 04:43 067 22.2
2017-Jul-25 04:28 067 22.8
2017-Jul-25 04:12 067 22.2
2017-Jul-25 03:57 067 22.2
2017-Jul-25 03:42 067 22.2
2017-Jul-25 03:27 067 22.2
2017-Jul-25 03:12 067 22.2
2017-Jul-25 02:58 067 22.2
2017-Jul-25 02:42 067 22.8
2017-Jul-25 02:27 067 22.8
2017-Jul-25 02:12 067 22.8
2017-Jul-25 01:56 067 22.8
2017-Jul-25 01:41 067 23.3
2017-Jul-25 01:26 067 23.9
2017-Jul-25 01:12 067 23.9
2017-Jul-25 00:56 067 23.3
2017-Jul-25 00:41 065 23.9
2017-Jul-25 00:26 065 23.3
2017-Jul-25 00:13 063 23.9
2017-Jul-24 23:56 080 23.9
2017-Jul-24 23:41 117 23.9
2017-Jul-24 23:26 118 24.4
2017-Jul-24 23:11 118 24.4
2017-Jul-24 22:55 095 24.4
2017-Jul-24 22:41 105 25.0
2017-Jul-24 22:25 096 25.0
2017-Jul-24 22:10 092 0 gusting 5 25.0
2017-Jul-24 21:55 079 25.0
2017-Jul-24 21:40 084 0 gusting 5 25.6
2017-Jul-24 21:25 103 25.6
2017-Jul-24 21:10 083 0 gusting 2 26.1
2017-Jul-24 20:55 081 26.1
2017-Jul-24 20:40 074 26.7
2017-Jul-24 20:25 082 0 gusting 4 26.7
2017-Jul-24 20:10 088 0 gusting 5 27.2
2017-Jul-24 19:54 088 27.2
2017-Jul-24 19:39 100 27.8
2017-Jul-24 19:24 086 28.3
2017-Jul-24 19:09 094 1 gusting 7 28.3
2017-Jul-24 18:54 090 1 gusting 6 28.9
2017-Jul-24 18:39 075 2 gusting 7 29.4
2017-Jul-24 18:24 080 3 gusting 7 29.4
2017-Jul-24 18:10 108 3 gusting 9 29.4
2017-Jul-24 17:54 124 1 gusting 11 30.0
2017-Jul-24 17:39 123 5 gusting 13 30.0
2017-Jul-24 17:25 065 5 gusting 12 31.1
2017-Jul-24 17:09 092 3 gusting 10 31.1
2017-Jul-24 16:55 108 3 gusting 10 31.7
2017-Jul-24 16:38 095 6 gusting 13 31.7
2017-Jul-24 16:23 010 4 gusting 12 32.2
2017-Jul-24 16:08 090 2 gusting 12 32.2
2017-Jul-24 15:53 129 3 gusting 9 32.2
2017-Jul-24 15:38 121 1 gusting 11 32.2
2017-Jul-24 15:23 108 7 gusting 11 32.8
2017-Jul-24 15:08 137 6 gusting 11 33.3
2017-Jul-24 14:53 087 4 gusting 11 33.3
2017-Jul-24 14:38 107 4 gusting 9 33.3
2017-Jul-24 14:22 080 6 gusting 12 33.3
2017-Jul-24 14:07 110 4 gusting 11 33.3
2017-Jul-24 13:52 080 3 gusting 12 33.3
2017-Jul-24 13:37 080 4 gusting 12 33.3
2017-Jul-24 13:23 100 4 gusting 10 33.3
2017-Jul-24 13:07 099 5 gusting 10 33.9
2017-Jul-24 12:52 088 2 gusting 10 33.3
2017-Jul-24 12:37 114 4 gusting 9 33.3
2017-Jul-24 12:22 079 5 gusting 11 33.3
2017-Jul-24 12:08 049 5 gusting 11 33.3
2017-Jul-24 11:51 101 5 gusting 9 33.3
2017-Jul-24 11:37 098 2 gusting 18 33.3
2017-Jul-24 11:21 046 32.8
2017-Jul-24 11:06 026 1 gusting 8 32.2
2017-Jul-24 10:51 087 0 gusting 6 32.8
2017-Jul-24 10:38 093 0 gusting 6 32.2
2017-Jul-24 10:21 090 0 gusting 5 31.7
2017-Jul-24 10:06 073 0 gusting 5 31.1
2017-Jul-24 09:50 048 30.0
2017-Jul-24 09:36 043 29.4
2017-Jul-24 09:20 041 0 gusting 4 28.9
2017-Jul-24 09:05 041 27.8
2017-Jul-24 08:50 063 27.2
2017-Jul-24 08:35 074 27.2
2017-Jul-24 08:20 074 26.7
2017-Jul-24 08:05 079 26.1
2017-Jul-24 07:50 079 25.0
2017-Jul-24 07:35 098 25.0
2017-Jul-24 07:20 098 24.4
2017-Jul-24 07:05 055 23.9
2017-Jul-24 06:50 056 23.3
2017-Jul-24 06:35 057 23.3
2017-Jul-24 06:20 057 22.8
2017-Jul-24 06:06 057 21.7